Location: Seattle
(47.6064°N, 122.3308°W)
Time: 01:09:10
(UTC-07:00)

SEEDS - Pass Details

Date: 02 April 2023
Orbit: 568 x 587 km, 97.7° (Epoch: 28 May)

Event Time Altitude Azimuth Distance (km) Brightness Sun altitude
Rises 04:01:35 0° 29° (NNE) 2,838 ? -25.8°
Reaches altitude 10° 04:04:32 10° 52° (NE) 1,930 ? -25.4°
Maximum altitude 04:07:06 16° 90° (E) 1,585 ? -25.1°
Drops below altitude 10° 04:09:39 10° 128° (SE) 1,918 ? -24.7°
Enters shadow 04:11:11 - 142° (SE) 2,352 ? -24.5°
